Location: Unspecified
(0.0000°N, 0.0000°E)
Time: 00:49:05
(UTC+00:00)

Vanguard 1 - Visible Passes

Search period start: 16 September 2019 00:00
Search period end: 26 September 2019 00:00
Orbit: 654 x 3829 km, 34.3° (Epoch: 15 September)

Date Brightness Start Highest point End Pass type
(mag) Time Alt. Az. Time Alt. Az. Time Alt. Az.
16 Sep 13.4 01:17:52 37° NNE 01:17:52 37° NNE 01:27:27 10° NE visible
16 Sep 13.4 03:30:34 28° NW 03:34:08 29° NNW 03:49:07 10° NNE visible
16 Sep 13.0 20:22:28 10° SSW 20:30:40 24° SSE 20:30:40 24° SSE visible
16 Sep 13.7 22:41:47 10° SW 23:24:49 - ENE 22:43:23 15° SW visible
17 Sep 13.3 01:37:30 39° NNE 01:37:30 39° NNE 01:48:32 10° NE visible
17 Sep 13.5 03:50:12 20° NW 03:56:46 23° NNW 04:09:51 10° NNE visible
17 Sep 12.9 20:42:45 10° SSW 20:50:26 30° SSE 20:50:26 30° SSE visible
17 Sep 13.8 23:02:50 10° SW 23:44:24 12° NE 23:45:09 10° NE visible
18 Sep 13.3 01:57:06 38° N 01:57:06 38° N 02:09:30 10° NE visible
18 Sep 13.6 04:09:47 14° NW 04:19:45 19° NNW 04:30:41 10° NNE visible
18 Sep 13.2 18:48:57 10° SSE 18:51:21 11° SSE 18:53:58 10° SE visible
18 Sep 12.8 21:03:11 10° SSW 21:10:15 33° S 21:10:15 33° S visible
19 Sep 14.0 00:03:58 16° NE 00:03:58 16° NE 00:06:46 10° NE visible
19 Sep 13.4 02:16:39 35° N 02:16:39 35° N 02:30:25 10° NNE visible
19 Sep 13.7 04:32:15 10° NW 04:43:01 16° NNW 04:51:48 10° NNE visible
19 Sep 13.1 19:06:48 10° S 19:13:24 16° SE 19:17:22 14° SE visible
19 Sep 12.8 21:23:46 10° SW 21:30:06 34° SSW 21:30:06 34° SSW visible
20 Sep 13.9 00:23:30 21° NE 00:23:30 21° NE 00:28:08 10° NE visible
20 Sep 13.5 02:36:11 30° NNW 02:36:11 30° NNW 02:51:23 10° NNE visible
20 Sep 13.8 04:58:00 10° NW 05:06:28 14° N 05:13:28 10° NNE visible
20 Sep 12.9 19:26:22 10° S 19:35:08 22° SE 19:37:16 22° SE visible
20 Sep 12.9 21:44:32 10° SW 21:49:59 33° SW 21:49:59 33° SW visible
21 Sep 13.8 00:43:00 24° NNE 00:43:00 24° NNE 00:49:21 10° NE visible
21 Sep 13.6 02:55:41 24° NNW 02:57:21 25° NNW 03:12:27 10° NNE visible
21 Sep 13.7 05:22:31 10° NNW 05:29:55 13° N 05:36:01 10° NNE visible
21 Sep 12.6 19:46:24 10° SSW 19:56:35 31° SE 19:57:13 31° SE visible
21 Sep 13.1 22:05:29 10° SW 22:49:47 - NE 22:09:56 28° SW visible
22 Sep 13.7 01:02:28 26° NNE 01:02:28 26° NNE 01:10:30 10° NE visible
22 Sep 13.7 03:15:09 19° NW 03:20:42 20° NNW 03:33:46 10° NNE visible
22 Sep 12.4 20:06:41 10° SSW 20:17:13 41° SE 20:17:13 41° SE visible
22 Sep 13.3 22:26:42 10° WSW 23:09:16 - NE 22:29:57 22° WSW visible
23 Sep 13.7 01:21:56 27° N 01:21:56 27° N 01:31:37 10° NNE visible
23 Sep 13.8 03:34:37 13° NW 03:44:19 18° NNW 03:55:32 10° NNE visible
23 Sep 12.9 18:12:04 10° SSE 18:15:52 12° SE 18:20:26 10° ESE visible
23 Sep 12.2 20:27:09 10° SW 20:37:16 53° SSE 20:37:16 53° SSE visible
23 Sep 13.6 22:48:12 10° WSW 23:28:42 - NE 22:50:01 16° WSW visible
24 Sep 13.7 01:41:24 26° N 01:41:24 26° N 01:52:50 10° NNE visible
24 Sep 13.8 03:56:02 10° NW 04:08:04 16° N 04:17:56 10° NNE visible
24 Sep 12.7 18:30:44 10° S 18:37:22 19° SE 18:44:38 13° ESE visible
24 Sep 12.1 20:47:50 10° SW 20:57:23 61° S 20:57:23 61° S visible
24 Sep 13.8 23:10:03 10° WSW 23:48:10 12° NE 23:49:20 10° NE visible
25 Sep 13.7 02:00:51 24° N 02:00:51 24° N 02:14:15 10° NNE visible
25 Sep 13.8 04:20:09 10° NNW 04:31:46 17° N 04:41:01 10° NE visible
25 Sep 12.4 18:50:27 10° SSW 18:58:34 27° SE 19:04:48 21° ESE visible
25 Sep 12.2 21:08:44 10° SW 21:17:33 60° SW 21:17:33 60° SW visible
